Year,Month,Day,Hour,Minute,Value (Times are PST for temperature in C)
2014,08,24,00,00,16.60
2014,08,24,00,01,16.60
2014,08,24,00,02,16.50
2014,08,24,00,03,16.50
2014,08,24,00,04,16.50
2014,08,24,00,05,16.50
2014,08,24,00,06,16.50
2014,08,24,00,07,16.40
2014,08,24,00,08,16.40
2014,08,24,00,09,16.40
2014,08,24,00,10,16.40
2014,08,24,00,11,16.40
2014,08,24,00,12,16.30
2014,08,24,00,13,16.30
2014,08,24,00,14,16.30
2014,08,24,00,15,16.30
2014,08,24,00,16,16.30
2014,08,24,00,17,16.20
2014,08,24,00,18,16.20
2014,08,24,00,19,16.20
2014,08,24,00,20,16.20
2014,08,24,00,21,16.20
2014,08,24,00,22,16.20
2014,08,24,00,23,16.20
2014,08,24,00,24,16.20
2014,08,24,00,25,16.10
2014,08,24,00,26,16.10
2014,08,24,00,27,16.00
2014,08,24,00,28,16.00
2014,08,24,00,29,16.00
2014,08,24,00,30,15.90
2014,08,24,00,31,15.90
2014,08,24,00,32,15.90
2014,08,24,00,33,15.90
2014,08,24,00,34,15.90
2014,08,24,00,35,15.90
2014,08,24,00,36,15.90
2014,08,24,00,37,15.90
2014,08,24,00,38,15.90
2014,08,24,00,39,15.90
2014,08,24,00,40,16.00
2014,08,24,00,41,16.00
2014,08,24,00,42,16.00
2014,08,24,00,43,15.90
2014,08,24,00,44,15.90
2014,08,24,00,45,15.90
2014,08,24,00,46,15.90
2014,08,24,00,47,15.90
2014,08,24,00,48,15.90
2014,08,24,00,49,15.90
2014,08,24,00,50,15.90
2014,08,24,00,51,15.90
2014,08,24,00,52,15.90
2014,08,24,00,53,15.80
2014,08,24,00,54,15.80
2014,08,24,00,55,15.80
2014,08,24,00,56,15.80
2014,08,24,00,57,15.80
2014,08,24,00,58,15.70
2014,08,24,00,59,15.60
2014,08,24,01,00,15.60
2014,08,24,01,01,15.50
2014,08,24,01,02,15.50
2014,08,24,01,03,15.40
2014,08,24,01,04,15.40
2014,08,24,01,05,15.30
2014,08,24,01,06,15.30
2014,08,24,01,07,15.30
2014,08,24,01,08,15.30
2014,08,24,01,09,15.20
2014,08,24,01,10,15.20
2014,08,24,01,11,15.20
2014,08,24,01,12,15.20
2014,08,24,01,13,15.10
2014,08,24,01,14,15.10
2014,08,24,01,15,15.00
2014,08,24,01,16,15.00
2014,08,24,01,17,14.90
2014,08,24,01,18,14.90
2014,08,24,01,19,14.80
2014,08,24,01,20,14.80
2014,08,24,01,21,14.70
2014,08,24,01,22,14.70
2014,08,24,01,23,14.70
2014,08,24,01,24,14.70
2014,08,24,01,25,14.60
2014,08,24,01,26,14.60
2014,08,24,01,27,14.60
2014,08,24,01,28,14.60
2014,08,24,01,29,14.60
2014,08,24,01,30,14.60
2014,08,24,01,31,14.60
2014,08,24,01,32,14.60
2014,08,24,01,33,14.60
2014,08,24,01,34,14.60
2014,08,24,01,35,14.50
2014,08,24,01,36,14.50
2014,08,24,01,37,14.50
2014,08,24,01,38,14.50
2014,08,24,01,39,14.50
2014,08,24,01,40,14.50
2014,08,24,01,41,14.50
2014,08,24,01,42,14.40
2014,08,24,01,43,14.40
2014,08,24,01,44,14.40
2014,08,24,01,45,14.40
2014,08,24,01,46,14.40
2014,08,24,01,47,14.40
2014,08,24,01,48,14.40
2014,08,24,01,49,14.30
2014,08,24,01,50,14.30
2014,08,24,01,51,14.30
2014,08,24,01,52,14.30
2014,08,24,01,53,14.30
2014,08,24,01,54,14.30
2014,08,24,01,55,14.30
2014,08,24,01,56,14.30
2014,08,24,01,57,14.20
2014,08,24,01,58,14.20
2014,08,24,01,59,14.20
2014,08,24,02,00,14.20
2014,08,24,02,01,14.20
2014,08,24,02,02,14.20
2014,08,24,02,03,14.10
2014,08,24,02,04,14.10
2014,08,24,02,05,14.00
2014,08,24,02,06,13.90
2014,08,24,02,07,13.90
2014,08,24,02,08,13.80
2014,08,24,02,09,13.80
2014,08,24,02,10,13.70
2014,08,24,02,11,13.70
2014,08,24,02,12,13.70
2014,08,24,02,13,13.70
2014,08,24,02,14,13.60
2014,08,24,02,15,13.60
2014,08,24,02,16,13.60
2014,08,24,02,17,13.60
2014,08,24,02,18,13.60
2014,08,24,02,19,13.60
2014,08,24,02,20,13.60
2014,08,24,02,21,13.50
2014,08,24,02,22,13.50
2014,08,24,02,23,13.50
2014,08,24,02,24,13.40
2014,08,24,02,25,13.40
2014,08,24,02,26,13.40
2014,08,24,02,27,13.40
2014,08,24,02,28,13.40
2014,08,24,02,29,13.40
2014,08,24,02,30,13.30
2014,08,24,02,31,13.30
2014,08,24,02,32,13.30
2014,08,24,02,33,13.30
2014,08,24,02,34,13.30
2014,08,24,02,35,13.30
2014,08,24,02,36,13.30
2014,08,24,02,37,13.30
2014,08,24,02,38,13.30
2014,08,24,02,39,13.30
2014,08,24,02,40,13.30
2014,08,24,02,41,13.40
2014,08,24,02,42,13.40
2014,08,24,02,43,13.40
2014,08,24,02,44,13.40
2014,08,24,02,45,13.50
2014,08,24,02,46,13.50
2014,08,24,02,47,13.60
2014,08,24,02,48,13.60
2014,08,24,02,49,13.70
2014,08,24,02,50,13.70
2014,08,24,02,51,13.70
2014,08,24,02,52,13.80
2014,08,24,02,53,13.80
2014,08,24,02,54,13.80
2014,08,24,02,55,13.80
2014,08,24,02,56,13.90
2014,08,24,02,57,13.90
2014,08,24,02,58,13.90
2014,08,24,02,59,13.90
2014,08,24,03,00,13.90
2014,08,24,03,01,14.00
2014,08,24,03,02,14.00
2014,08,24,03,03,14.00
2014,08,24,03,04,14.00
2014,08,24,03,05,13.90
2014,08,24,03,06,13.90
2014,08,24,03,07,13.90
2014,08,24,03,08,13.90
2014,08,24,03,09,13.90
2014,08,24,03,10,13.90
2014,08,24,03,11,13.80
2014,08,24,03,12,13.80
2014,08,24,03,13,13.80
2014,08,24,03,14,13.80
2014,08,24,03,15,13.80
2014,08,24,03,16,13.70
2014,08,24,03,17,13.70
2014,08,24,03,18,13.70
2014,08,24,03,19,13.70
2014,08,24,03,20,13.70
2014,08,24,03,21,13.60
2014,08,24,03,22,13.60
2014,08,24,03,23,13.60
2014,08,24,03,24,13.60
2014,08,24,03,25,13.60
2014,08,24,03,26,13.60
2014,08,24,03,27,13.60
2014,08,24,03,28,13.50
2014,08,24,03,29,13.50
2014,08,24,03,30,13.50
2014,08,24,03,31,13.50
2014,08,24,03,32,13.50
2014,08,24,03,33,13.50
2014,08,24,03,34,13.50
2014,08,24,03,35,13.50
2014,08,24,03,36,13.50
2014,08,24,03,37,13.50
2014,08,24,03,38,13.50
2014,08,24,03,39,13.50
2014,08,24,03,40,13.40
2014,08,24,03,41,13.40
2014,08,24,03,42,13.40
2014,08,24,03,43,13.40
2014,08,24,03,44,13.30
2014,08,24,03,45,13.30
2014,08,24,03,46,13.30
2014,08,24,03,47,13.20
2014,08,24,03,48,13.20
2014,08,24,03,49,13.20
2014,08,24,03,50,13.10
2014,08,24,03,51,13.10
2014,08,24,03,52,13.10
2014,08,24,03,53,13.10
2014,08,24,03,54,13.00
2014,08,24,03,55,13.00
2014,08,24,03,56,13.00
2014,08,24,03,57,12.90
2014,08,24,03,58,12.90
2014,08,24,03,59,12.90
2014,08,24,04,00,12.80
2014,08,24,04,01,12.80
2014,08,24,04,02,12.80
2014,08,24,04,03,12.80
2014,08,24,04,04,12.80
2014,08,24,04,05,12.70
2014,08,24,04,06,12.70
2014,08,24,04,07,12.70
2014,08,24,04,08,12.70
2014,08,24,04,09,12.70
2014,08,24,04,10,12.60
2014,08,24,04,11,12.60
2014,08,24,04,12,12.60
2014,08,24,04,13,12.60
2014,08,24,04,14,12.50
2014,08,24,04,15,12.50
2014,08,24,04,16,12.50
2014,08,24,04,17,12.40
2014,08,24,04,18,12.40
2014,08,24,04,19,12.40
2014,08,24,04,20,12.40
2014,08,24,04,21,12.40
2014,08,24,04,22,12.40
2014,08,24,04,23,12.40
2014,08,24,04,24,12.40
2014,08,24,04,25,12.40
2014,08,24,04,26,12.40
2014,08,24,04,27,12.30
2014,08,24,04,28,12.30
2014,08,24,04,29,12.30
2014,08,24,04,30,12.30
2014,08,24,04,31,12.30
2014,08,24,04,32,12.30
2014,08,24,04,33,12.30
2014,08,24,04,34,12.30
2014,08,24,04,35,12.30
2014,08,24,04,36,12.30
2014,08,24,04,37,12.30
2014,08,24,04,38,12.30
2014,08,24,04,39,12.30
2014,08,24,04,40,12.30
2014,08,24,04,41,12.30
2014,08,24,04,42,12.30
2014,08,24,04,43,12.30
2014,08,24,04,44,12.30
2014,08,24,04,45,12.30
2014,08,24,04,46,12.30
2014,08,24,04,47,12.30
2014,08,24,04,48,12.30
2014,08,24,04,49,12.30
2014,08,24,04,50,12.20
2014,08,24,04,51,12.20
2014,08,24,04,52,12.20
2014,08,24,04,53,12.20
2014,08,24,04,54,12.20
2014,08,24,04,55,12.20
2014,08,24,04,56,12.20
2014,08,24,04,57,12.20
2014,08,24,04,58,12.20
2014,08,24,04,59,12.20
2014,08,24,05,00,12.20
2014,08,24,05,01,12.20
2014,08,24,05,02,12.20
2014,08,24,05,03,12.20
2014,08,24,05,04,12.20
2014,08,24,05,05,12.20
2014,08,24,05,06,12.20
2014,08,24,05,07,12.20
2014,08,24,05,08,12.20
2014,08,24,05,09,12.20
2014,08,24,05,10,12.20
2014,08,24,05,11,12.20
2014,08,24,05,12,12.30
2014,08,24,05,13,12.30
2014,08,24,05,14,12.40
2014,08,24,05,15,12.40
2014,08,24,05,16,12.40
2014,08,24,05,17,12.50
2014,08,24,05,18,12.50
2014,08,24,05,19,12.60
2014,08,24,05,20,12.60
2014,08,24,05,21,12.60
2014,08,24,05,22,12.60
2014,08,24,05,23,12.60
2014,08,24,05,24,12.60
2014,08,24,05,25,12.60
2014,08,24,05,26,12.60
2014,08,24,05,27,12.60
2014,08,24,05,28,12.60
2014,08,24,05,29,12.50
2014,08,24,05,30,12.50
2014,08,24,05,31,12.50
2014,08,24,05,32,12.50
2014,08,24,05,33,12.50
2014,08,24,05,34,12.50
2014,08,24,05,35,12.50
2014,08,24,05,36,12.50
2014,08,24,05,37,12.50
2014,08,24,05,38,12.60
2014,08,24,05,39,12.60
2014,08,24,05,40,12.60
2014,08,24,05,41,12.60
2014,08,24,05,42,12.60
2014,08,24,05,43,12.60
2014,08,24,05,44,12.70
2014,08,24,05,45,12.60
2014,08,24,05,46,12.70
2014,08,24,05,47,12.70
2014,08,24,05,48,12.70
2014,08,24,05,49,12.70
2014,08,24,05,50,12.70
2014,08,24,05,51,12.70
2014,08,24,05,52,12.70
2014,08,24,05,53,12.80
2014,08,24,05,54,12.80
2014,08,24,05,55,12.80
2014,08,24,05,56,12.80
2014,08,24,05,57,12.90
2014,08,24,05,58,12.90
2014,08,24,05,59,13.00
2014,08,24,06,00,13.10
2014,08,24,06,01,13.10
2014,08,24,06,02,13.20
2014,08,24,06,03,13.20
2014,08,24,06,04,13.20
2014,08,24,06,05,13.20
2014,08,24,06,06,13.20
2014,08,24,06,07,13.20
2014,08,24,06,08,13.20
2014,08,24,06,09,13.20
2014,08,24,06,10,13.20
2014,08,24,06,11,13.20
2014,08,24,06,12,13.20
2014,08,24,06,13,13.10
2014,08,24,06,14,13.10
2014,08,24,06,15,13.00
2014,08,24,06,16,13.00
2014,08,24,06,17,13.00
2014,08,24,06,18,12.90
2014,08,24,06,19,12.90
2014,08,24,06,20,12.90
2014,08,24,06,21,12.80
2014,08,24,06,22,12.80
2014,08,24,06,23,12.70
2014,08,24,06,24,12.70
2014,08,24,06,25,12.70
2014,08,24,06,26,12.60
2014,08,24,06,27,12.60
2014,08,24,06,28,12.60
2014,08,24,06,29,12.60
2014,08,24,06,30,12.60
2014,08,24,06,31,12.50
2014,08,24,06,32,12.50
2014,08,24,06,33,12.40
2014,08,24,06,34,12.40
2014,08,24,06,35,12.40
2014,08,24,06,36,12.40
2014,08,24,06,37,12.30
2014,08,24,06,38,12.30
2014,08,24,06,39,12.30
2014,08,24,06,40,12.30
2014,08,24,06,41,12.30
2014,08,24,06,42,12.30
2014,08,24,06,43,12.30
2014,08,24,06,44,12.30
2014,08,24,06,45,12.30
2014,08,24,06,46,12.30
2014,08,24,06,47,12.20
2014,08,24,06,48,12.20
2014,08,24,06,49,12.20
2014,08,24,06,50,12.20
2014,08,24,06,51,12.20
2014,08,24,06,52,12.20
2014,08,24,06,53,12.20
2014,08,24,06,54,12.20
2014,08,24,06,55,12.20
2014,08,24,06,56,12.20
2014,08,24,06,57,12.20
2014,08,24,06,58,12.20
2014,08,24,06,59,12.20
2014,08,24,07,00,12.20
2014,08,24,07,01,12.20
2014,08,24,07,02,12.10
2014,08,24,07,03,12.10
2014,08,24,07,04,12.10
2014,08,24,07,05,12.10
2014,08,24,07,06,12.10
2014,08,24,07,07,12.10
2014,08,24,07,08,12.10
2014,08,24,07,09,12.10
2014,08,24,07,10,12.10
2014,08,24,07,11,12.10
2014,08,24,07,12,12.10
2014,08,24,07,13,12.20
2014,08,24,07,14,12.20
2014,08,24,07,15,12.20
2014,08,24,07,16,12.20
2014,08,24,07,17,12.20
2014,08,24,07,18,12.20
2014,08,24,07,19,12.20
2014,08,24,07,20,12.20
2014,08,24,07,21,12.30
2014,08,24,07,22,12.30
2014,08,24,07,23,12.30
2014,08,24,07,24,12.30
2014,08,24,07,25,12.40
2014,08,24,07,26,12.40
2014,08,24,07,27,12.40
2014,08,24,07,28,12.50
2014,08,24,07,29,12.50
2014,08,24,07,30,12.60
2014,08,24,07,31,12.60
2014,08,24,07,32,12.70
2014,08,24,07,33,12.70
2014,08,24,07,34,12.70
2014,08,24,07,35,12.70
2014,08,24,07,36,12.80
2014,08,24,07,37,12.80
2014,08,24,07,38,12.80
2014,08,24,07,39,12.80
2014,08,24,07,40,12.90
2014,08,24,07,41,12.90
2014,08,24,07,42,12.90
2014,08,24,07,43,13.00
2014,08,24,07,44,13.00
2014,08,24,07,45,13.00
2014,08,24,07,46,13.10
2014,08,24,07,47,13.10
2014,08,24,07,48,13.10
2014,08,24,07,49,13.20
2014,08,24,07,50,13.20
2014,08,24,07,51,13.20
2014,08,24,07,52,13.30
2014,08,24,07,53,13.30
2014,08,24,07,54,13.30
2014,08,24,07,55,13.30
2014,08,24,07,56,13.40
2014,08,24,07,57,13.40
2014,08,24,07,58,13.40
2014,08,24,07,59,13.50
2014,08,24,08,00,13.50
2014,08,24,08,01,13.50
2014,08,24,08,02,13.60
2014,08,24,08,03,13.60
2014,08,24,08,04,13.70
2014,08,24,08,05,13.70
2014,08,24,08,06,13.70
2014,08,24,08,07,13.80
2014,08,24,08,08,13.80
2014,08,24,08,09,13.80
2014,08,24,08,10,13.90
2014,08,24,08,11,13.90
2014,08,24,08,12,13.90
2014,08,24,08,13,14.00
2014,08,24,08,14,14.00
2014,08,24,08,15,14.10
2014,08,24,08,16,14.10
2014,08,24,08,17,14.20
2014,08,24,08,18,14.30
2014,08,24,08,19,14.30
2014,08,24,08,20,14.30
2014,08,24,08,21,14.30
2014,08,24,08,22,14.40
2014,08,24,08,23,14.40
2014,08,24,08,24,14.40
2014,08,24,08,25,14.40
2014,08,24,08,26,14.40
2014,08,24,08,27,14.50
2014,08,24,08,28,14.50
2014,08,24,08,29,14.50
2014,08,24,08,30,14.60
2014,08,24,08,31,14.60
2014,08,24,08,32,14.60
2014,08,24,08,33,14.70
2014,08,24,08,34,14.70
2014,08,24,08,35,14.70
2014,08,24,08,36,14.80
2014,08,24,08,37,14.80
2014,08,24,08,38,14.80
2014,08,24,08,39,14.90
2014,08,24,08,40,14.90
2014,08,24,08,41,14.90
2014,08,24,08,42,14.90
2014,08,24,08,43,14.90
2014,08,24,08,44,14.90
2014,08,24,08,45,14.90
2014,08,24,08,46,14.90
2014,08,24,08,47,15.00
2014,08,24,08,48,15.00
2014,08,24,08,49,15.00
2014,08,24,08,50,15.10
2014,08,24,08,51,15.10
2014,08,24,08,52,15.10
2014,08,24,08,53,15.20
2014,08,24,08,54,15.30
2014,08,24,08,55,15.30
2014,08,24,08,56,15.30
2014,08,24,08,57,15.40
2014,08,24,08,58,15.50
2014,08,24,08,59,15.50
2014,08,24,09,00,15.60
2014,08,24,09,01,15.70
2014,08,24,09,02,15.80
2014,08,24,09,03,15.80
2014,08,24,09,04,15.90
2014,08,24,09,05,16.00
2014,08,24,09,06,16.00
2014,08,24,09,07,16.10
2014,08,24,09,08,16.10
2014,08,24,09,09,16.10
2014,08,24,09,10,16.20
2014,08,24,09,11,16.20
2014,08,24,09,12,16.30
2014,08,24,09,13,16.30
2014,08,24,09,14,16.30
2014,08,24,09,15,16.40
2014,08,24,09,16,16.40
2014,08,24,09,17,16.40
2014,08,24,09,18,16.40
2014,08,24,09,19,16.50
2014,08,24,09,20,16.50
2014,08,24,09,21,16.50
2014,08,24,09,22,16.50
2014,08,24,09,23,16.60
2014,08,24,09,24,16.60
2014,08,24,09,25,16.60
2014,08,24,09,26,16.70
2014,08,24,09,27,16.80
2014,08,24,09,28,16.80
2014,08,24,09,29,16.90
2014,08,24,09,30,17.00
2014,08,24,09,31,17.00
2014,08,24,09,32,17.10
2014,08,24,09,33,17.10
2014,08,24,09,34,17.20
2014,08,24,09,35,17.30
2014,08,24,09,36,17.30
2014,08,24,09,37,17.40
2014,08,24,09,38,17.40
2014,08,24,09,39,17.40
2014,08,24,09,40,17.50
2014,08,24,09,41,17.50
2014,08,24,09,42,17.50
2014,08,24,09,43,17.50
2014,08,24,09,44,17.50
2014,08,24,09,45,17.50
2014,08,24,09,46,17.50
2014,08,24,09,47,17.50
2014,08,24,09,48,17.60
2014,08,24,09,49,17.60
2014,08,24,09,50,17.60
2014,08,24,09,51,17.70
2014,08,24,09,52,17.70
2014,08,24,09,53,17.80
2014,08,24,09,54,17.80
2014,08,24,09,55,17.90
2014,08,24,09,56,18.00
2014,08,24,09,57,18.10
2014,08,24,09,58,18.20
2014,08,24,09,59,18.30
2014,08,24,10,00,18.40
2014,08,24,10,01,18.50
2014,08,24,10,02,18.70
2014,08,24,10,03,18.80
2014,08,24,10,04,18.80
2014,08,24,10,05,18.80
2014,08,24,10,06,18.70
2014,08,24,10,07,18.60
2014,08,24,10,08,18.50
2014,08,24,10,09,18.40
2014,08,24,10,10,18.30
2014,08,24,10,11,18.20
2014,08,24,10,12,18.10
2014,08,24,10,13,18.00
2014,08,24,10,14,18.00
2014,08,24,10,15,17.90
2014,08,24,10,16,18.00
2014,08,24,10,17,18.00
2014,08,24,10,18,18.00
2014,08,24,10,19,18.10
2014,08,24,10,20,18.10
2014,08,24,10,21,18.10
2014,08,24,10,22,18.10
2014,08,24,10,23,18.10
2014,08,24,10,24,18.20
2014,08,24,10,25,18.20
2014,08,24,10,26,18.30
2014,08,24,10,27,18.40
2014,08,24,10,28,18.60
2014,08,24,10,29,18.80
2014,08,24,10,30,18.90
2014,08,24,10,31,19.00
2014,08,24,10,32,19.20
2014,08,24,10,33,19.30
2014,08,24,10,34,19.50
2014,08,24,10,35,19.60
2014,08,24,10,36,19.70
2014,08,24,10,37,19.80
2014,08,24,10,38,19.80
2014,08,24,10,39,19.90
2014,08,24,10,40,19.80
2014,08,24,10,41,19.60
2014,08,24,10,42,19.30
2014,08,24,10,43,19.10
2014,08,24,10,44,18.70
2014,08,24,10,45,18.40
2014,08,24,10,46,18.20
2014,08,24,10,47,18.10
2014,08,24,10,48,18.10
2014,08,24,10,49,18.10
2014,08,24,10,50,18.10
2014,08,24,10,51,18.00
2014,08,24,10,52,18.00
2014,08,24,10,53,17.90
2014,08,24,10,54,17.90
2014,08,24,10,55,17.80
2014,08,24,10,56,17.80
2014,08,24,10,57,17.90
2014,08,24,10,58,17.90
2014,08,24,10,59,18.00
2014,08,24,11,00,18.00
2014,08,24,11,01,18.00
2014,08,24,11,02,18.10
2014,08,24,11,03,18.10
2014,08,24,11,04,18.10
2014,08,24,11,05,18.10
2014,08,24,11,06,18.20
2014,08,24,11,07,18.20
2014,08,24,11,08,18.30
2014,08,24,11,09,18.50
2014,08,24,11,10,18.60
2014,08,24,11,11,18.80
2014,08,24,11,12,19.10
2014,08,24,11,13,19.30
2014,08,24,11,14,19.50
2014,08,24,11,15,19.70
2014,08,24,11,16,19.80
2014,08,24,11,17,20.00
2014,08,24,11,18,20.20
2014,08,24,11,19,20.30
2014,08,24,11,20,20.50
2014,08,24,11,21,20.60
2014,08,24,11,22,20.70
2014,08,24,11,23,20.80
2014,08,24,11,24,20.80
2014,08,24,11,25,20.80
2014,08,24,11,26,20.70
2014,08,24,11,27,20.40
2014,08,24,11,28,20.00
2014,08,24,11,29,19.70
2014,08,24,11,30,19.40
2014,08,24,11,31,19.10
2014,08,24,11,32,18.90
2014,08,24,11,33,18.70
2014,08,24,11,34,18.60
2014,08,24,11,35,18.50
2014,08,24,11,36,18.50
2014,08,24,11,37,18.60
2014,08,24,11,38,18.60
2014,08,24,11,39,18.70
2014,08,24,11,40,18.90
2014,08,24,11,41,19.00
2014,08,24,11,42,19.00
2014,08,24,11,43,19.20
2014,08,24,11,44,19.30
2014,08,24,11,45,19.30
2014,08,24,11,46,19.50
2014,08,24,11,47,19.70
2014,08,24,11,48,19.80
2014,08,24,11,49,20.00
2014,08,24,11,50,20.10
2014,08,24,11,51,20.30
2014,08,24,11,52,20.40
2014,08,24,11,53,20.50
2014,08,24,11,54,20.60
2014,08,24,11,55,20.80
2014,08,24,11,56,20.90
2014,08,24,11,57,21.10
2014,08,24,11,58,21.10
2014,08,24,11,59,21.20
2014,08,24,12,00,21.30
2014,08,24,12,01,21.40
2014,08,24,12,02,21.40
2014,08,24,12,03,21.50
2014,08,24,12,04,21.50
2014,08,24,12,05,21.50
2014,08,24,12,06,21.50
2014,08,24,12,07,21.60
2014,08,24,12,08,21.60
2014,08,24,12,09,21.70
2014,08,24,12,10,21.80
2014,08,24,12,11,21.80
2014,08,24,12,12,21.80
2014,08,24,12,13,21.80
2014,08,24,12,14,21.80
2014,08,24,12,15,21.80
2014,08,24,12,16,21.80
2014,08,24,12,17,21.90
2014,08,24,12,18,21.90
2014,08,24,12,19,22.00
2014,08,24,12,20,21.90
2014,08,24,12,21,21.90
2014,08,24,12,22,21.80
2014,08,24,12,23,21.80
2014,08,24,12,24,21.80
2014,08,24,12,25,21.70
2014,08,24,12,26,21.60
2014,08,24,12,27,21.60
2014,08,24,12,28,21.50
2014,08,24,12,29,21.60
2014,08,24,12,30,21.70
2014,08,24,12,31,21.80
2014,08,24,12,32,21.80
2014,08,24,12,33,21.90
2014,08,24,12,34,22.10
2014,08,24,12,35,22.20
2014,08,24,12,36,22.20
2014,08,24,12,37,22.30
2014,08,24,12,38,22.30
2014,08,24,12,39,22.40
2014,08,24,12,40,22.50
2014,08,24,12,41,22.60
2014,08,24,12,42,22.60
2014,08,24,12,43,22.70
2014,08,24,12,44,22.70
2014,08,24,12,45,22.80
2014,08,24,12,46,22.70
2014,08,24,12,47,22.70
2014,08,24,12,48,22.60
2014,08,24,12,49,22.60
2014,08,24,12,50,22.60
2014,08,24,12,51,22.70
2014,08,24,12,52,22.70
2014,08,24,12,53,22.70
2014,08,24,12,54,22.70
2014,08,24,12,55,22.80
2014,08,24,12,56,22.80
2014,08,24,12,57,22.90
2014,08,24,12,58,23.00
2014,08,24,12,59,23.10
2014,08,24,13,00,23.10
2014,08,24,13,01,23.10
2014,08,24,13,02,23.10
2014,08,24,13,03,23.10
2014,08,24,13,04,23.00
2014,08,24,13,05,22.80
2014,08,24,13,06,22.50
2014,08,24,13,07,22.10
2014,08,24,13,08,21.70
2014,08,24,13,09,21.20
2014,08,24,13,10,20.90
2014,08,24,13,11,20.60
2014,08,24,13,12,20.30
2014,08,24,13,13,20.20
2014,08,24,13,14,20.10
2014,08,24,13,15,20.00
2014,08,24,13,16,20.00
2014,08,24,13,17,19.90
2014,08,24,13,18,19.80
2014,08,24,13,19,19.90
2014,08,24,13,20,19.90
2014,08,24,13,21,19.90
2014,08,24,13,22,19.90
2014,08,24,13,23,19.80
2014,08,24,13,24,19.70
2014,08,24,13,25,19.50
2014,08,24,13,26,19.30
2014,08,24,13,27,19.20
2014,08,24,13,28,19.10
2014,08,24,13,29,19.10
2014,08,24,13,30,19.10
2014,08,24,13,31,19.00
2014,08,24,13,32,19.00
2014,08,24,13,33,19.00
2014,08,24,13,34,18.90
2014,08,24,13,35,18.90
2014,08,24,13,36,19.00
2014,08,24,13,37,19.00
2014,08,24,13,38,19.00
2014,08,24,13,39,18.90
2014,08,24,13,40,19.00
2014,08,24,13,41,19.00
2014,08,24,13,42,19.00
2014,08,24,13,43,18.90
2014,08,24,13,44,18.80
2014,08,24,13,45,18.80
2014,08,24,13,46,18.70
2014,08,24,13,47,18.70
2014,08,24,13,48,18.60
2014,08,24,13,49,18.60
2014,08,24,13,50,18.60
2014,08,24,13,51,18.60
2014,08,24,13,52,18.60
2014,08,24,13,53,18.60
2014,08,24,13,54,18.70
2014,08,24,13,55,18.70
2014,08,24,13,56,18.80
2014,08,24,13,57,18.70
2014,08,24,13,58,18.70
2014,08,24,13,59,18.60
2014,08,24,14,00,18.60
2014,08,24,14,01,18.60
2014,08,24,14,02,18.70
2014,08,24,14,03,18.70
2014,08,24,14,04,18.80
2014,08,24,14,05,18.80
2014,08,24,14,06,18.80
2014,08,24,14,07,18.80
2014,08,24,14,08,18.90
2014,08,24,14,09,18.90
2014,08,24,14,10,18.90
2014,08,24,14,11,18.90
2014,08,24,14,12,18.90
2014,08,24,14,13,18.90
2014,08,24,14,14,19.00
2014,08,24,14,15,19.10
2014,08,24,14,16,19.10
2014,08,24,14,17,19.20
2014,08,24,14,18,19.20
2014,08,24,14,19,19.30
2014,08,24,14,20,19.30
2014,08,24,14,21,19.40
2014,08,24,14,22,19.40
2014,08,24,14,23,19.50
2014,08,24,14,24,19.60
2014,08,24,14,25,19.60
2014,08,24,14,26,19.60
2014,08,24,14,27,19.60
2014,08,24,14,28,19.70
2014,08,24,14,29,19.80
2014,08,24,14,30,19.90
2014,08,24,14,31,19.90
2014,08,24,14,32,19.90
2014,08,24,14,33,19.90
2014,08,24,14,34,19.90
2014,08,24,14,35,19.90
2014,08,24,14,36,19.90
2014,08,24,14,37,19.80
2014,08,24,14,38,19.70
2014,08,24,14,39,19.70
2014,08,24,14,40,19.70
2014,08,24,14,41,19.60
2014,08,24,14,42,19.50
2014,08,24,14,43,19.50
2014,08,24,14,44,19.50
2014,08,24,14,45,19.50
2014,08,24,14,46,19.60
2014,08,24,14,47,19.60
2014,08,24,14,48,19.60
2014,08,24,14,49,19.60
2014,08,24,14,50,19.60
2014,08,24,14,51,19.60
2014,08,24,14,52,19.70
2014,08,24,14,53,19.70
2014,08,24,14,54,19.80
2014,08,24,14,55,19.80
2014,08,24,14,56,19.70
2014,08,24,14,57,19.70
2014,08,24,14,58,19.60
2014,08,24,14,59,19.60
2014,08,24,15,00,19.50
2014,08,24,15,01,19.50
2014,08,24,15,02,19.50
2014,08,24,15,03,19.50
2014,08,24,15,04,19.50
2014,08,24,15,05,19.60
2014,08,24,15,06,19.70
2014,08,24,15,07,19.80
2014,08,24,15,08,19.90
2014,08,24,15,09,20.10
2014,08,24,15,10,20.10
2014,08,24,15,11,20.00
2014,08,24,15,12,20.00
2014,08,24,15,13,20.00
2014,08,24,15,14,20.00
2014,08,24,15,15,20.10
2014,08,24,15,16,20.10
2014,08,24,15,17,20.10
2014,08,24,15,18,20.10
2014,08,24,15,19,20.00
2014,08,24,15,20,20.00
2014,08,24,15,21,20.00
2014,08,24,15,22,19.90
2014,08,24,15,23,20.00
2014,08,24,15,24,19.90
2014,08,24,15,25,19.80
2014,08,24,15,26,19.80
2014,08,24,15,27,19.80
2014,08,24,15,28,19.80
2014,08,24,15,29,19.70
2014,08,24,15,30,19.70
2014,08,24,15,31,19.50
2014,08,24,15,32,19.40
2014,08,24,15,33,19.40
2014,08,24,15,34,19.40
2014,08,24,15,35,19.40
2014,08,24,15,36,19.50
2014,08,24,15,37,19.50
2014,08,24,15,38,19.40
2014,08,24,15,39,19.40
2014,08,24,15,40,19.40
2014,08,24,15,41,19.40
2014,08,24,15,42,19.40
2014,08,24,15,43,19.40
2014,08,24,15,44,19.40
2014,08,24,15,45,19.40
2014,08,24,15,46,19.40
2014,08,24,15,47,19.40
2014,08,24,15,48,19.50
2014,08,24,15,49,19.50
2014,08,24,15,50,19.60
2014,08,24,15,51,19.60
2014,08,24,15,52,19.60
2014,08,24,15,53,19.60
2014,08,24,15,54,19.70
2014,08,24,15,55,19.70
2014,08,24,15,56,19.70
2014,08,24,15,57,19.70
2014,08,24,15,58,19.70
2014,08,24,15,59,19.80
2014,08,24,16,00,19.90
2014,08,24,16,01,20.00
2014,08,24,16,02,20.10
2014,08,24,16,03,20.10
2014,08,24,16,04,20.00
2014,08,24,16,05,20.00
2014,08,24,16,06,20.00
2014,08,24,16,07,19.90
2014,08,24,16,08,19.90
2014,08,24,16,09,19.90
2014,08,24,16,10,19.90
2014,08,24,16,11,19.90
2014,08,24,16,12,19.90
2014,08,24,16,13,19.90
2014,08,24,16,14,19.90
2014,08,24,16,15,20.00
2014,08,24,16,16,20.10
2014,08,24,16,17,20.10
2014,08,24,16,18,20.20
2014,08,24,16,19,20.20
2014,08,24,16,20,20.20
2014,08,24,16,21,20.20
2014,08,24,16,22,20.30
2014,08,24,16,23,20.20
2014,08,24,16,24,20.20
2014,08,24,16,25,20.10
2014,08,24,16,26,20.10
2014,08,24,16,27,20.10
2014,08,24,16,28,20.10
2014,08,24,16,29,20.10
2014,08,24,16,30,20.10
2014,08,24,16,31,20.10
2014,08,24,16,32,20.00
2014,08,24,16,33,20.00
2014,08,24,16,34,20.00
2014,08,24,16,35,19.90
2014,08,24,16,36,20.00
2014,08,24,16,37,20.00
2014,08,24,16,38,20.00
2014,08,24,16,39,19.90
2014,08,24,16,40,20.00
2014,08,24,16,41,20.10
2014,08,24,16,42,20.10
2014,08,24,16,43,20.00
2014,08,24,16,44,20.00
2014,08,24,16,45,19.90
2014,08,24,16,46,19.90
2014,08,24,16,47,19.90
2014,08,24,16,48,20.00
2014,08,24,16,49,20.00
2014,08,24,16,50,20.00
2014,08,24,16,51,20.00
2014,08,24,16,52,20.10
2014,08,24,16,53,20.10
2014,08,24,16,54,20.20
2014,08,24,16,55,20.20
2014,08,24,16,56,20.20
2014,08,24,16,57,20.30
2014,08,24,16,58,20.40
2014,08,24,16,59,20.40
2014,08,24,17,00,20.30
2014,08,24,17,01,20.30
2014,08,24,17,02,20.30
2014,08,24,17,03,20.30
2014,08,24,17,04,20.20
2014,08,24,17,05,20.20
2014,08,24,17,06,20.10
2014,08,24,17,07,20.00
2014,08,24,17,08,19.90
2014,08,24,17,09,19.90
2014,08,24,17,10,19.90
2014,08,24,17,11,19.90
2014,08,24,17,12,19.90
2014,08,24,17,13,19.90
2014,08,24,17,14,19.80
2014,08,24,17,15,19.80
2014,08,24,17,16,19.80
2014,08,24,17,17,19.90
2014,08,24,17,18,20.00
2014,08,24,17,19,20.00